WA2GUG Weather Reports


time (UTC)temp
C
wind
direction
speed
KPH
gust
KPH
rain 1hr
cm
rain 24hr
cm
rain mn
cm
humidity
%
barometer
mb
20260503191418 21 129 1.6 9.7 0.00 0.00 0.00 99 1006.2
20260503190918 21 83 0.0 3.2 0.00 0.00 0.00 99 1006.2
20260503190417 20 38 0.0 9.7 0.00 0.00 0.00 99 1006.2
20260503185917 19 7 0.0 14.5 0.00 0.00 0.00 99 1007.0
20260503185417 17 42 0.0 14.5 0.00 0.00 0.00 99 1006.2
20260503184917 16 48 0.0 8.0 0.00 0.00 0.00 99 1007.0
20260503184417 16 92 0.0 8.0 0.00 0.00 0.00 99 1006.2
20260503183917 15 90 0.0 3.2 0.00 0.00 0.00 99 1007.0
20260503183418 14 45 0.0 1.6 0.00 0.00 0.00 99 1007.0
20260503182917 14 79 0.0 6.4 0.00 0.00 0.00 99 1007.0
20260503182417 15 48 0.0 8.0 0.00 0.00 0.00 99 1007.0
20260503181917 16 48 0.0 16.1 0.00 0.00 0.00 99 1007.0
20260503181417 17 74 1.6 16.1 0.00 0.00 0.00 99 1007.0
20260503180917 16 83 0.0 8.0 0.00 0.00 0.00 99 1007.0
20260503180417 13 5 0.0 11.3 0.00 0.00 0.00 99 1007.0
20260503175917 13 42 1.6 11.3 0.00 0.00 0.00 99 1007.0
20260503175417 13 47 0.0 8.0 0.00 0.00 0.00 99 1007.0
20260503174917 13 35 0.0 8.0 0.00 0.00 0.00 99 1007.0
20260503174417 14 83 0.0 6.4 0.00 0.00 0.00 99 1007.0
20260503173917 15 36 0.0 6.4 0.00 0.00 0.00 99 1007.0
20260503173418 13 35 0.0 6.4 0.00 0.00 0.00 99 1007.0
20260503172917 13 40 0.0 8.0 0.00 0.00 0.00 99 1007.0
20260503172417 13 45 0.0 8.0 0.00 0.00 0.00 99 1007.0
20260503171917 13 71 0.0 9.7 0.00 0.00 0.00 99 1007.0
20260503171417 12 43 1.6 9.7 0.00 0.00 0.00 99 1007.0
20260503170917 13 39 0.0 6.4 0.00 0.00 0.00 99 1007.0
20260503170417 13 309 0.0 6.4 0.00 0.00 0.00 99 1007.0
20260503150917 12 72 0.0 9.7 0.00 0.00 0.00 99 1007.1
20260503150417 13 45 0.0 6.4 0.00 0.00 0.00 99 1007.0
20260503131417 10 42 0.0 4.8 0.00 0.00 0.00 99 1008.0
20260503130417 10 46 0.0 16.1 0.00 0.00 0.00 99 1008.0
20260503110417 5 131 0.0 8.0 0.00 0.00 0.00 99 1007.1
20260503090417 2 88 0.0 0.0 0.00 0.00 0.00 99 1007.0
20260503081417 1 135 0.0 0.0 0.00 0.00 0.00 99 1008.0
20260503080917 1 91 0.0 0.0 0.00 0.00 0.00 99 1008.0
20260503080417 1 174 0.0 0.0 0.00 0.00 0.00 99 1008.0
20260503072917 1 72 0.0 0.0 0.00 0.00 0.00 99 1008.0
20260503072417 1 87 0.0 0.0 0.00 0.00 0.00 99 1008.0
20260503071917 1 136 0.0 0.0 0.00 0.00 0.00 99 1008.0
20260503071417 1 132 0.0 0.0 0.00 0.00 0.00 99 1008.0
20260503070917 1 93 0.0 4.8 0.00 0.00 0.00 99 1008.0
20260503070417 1 102 0.0 4.8 0.00 0.00 0.00 99 1008.0
20260503054917 -1 22 0.0 0.0 0.00 0.00 0.00 99 1008.0
20260503054417 -1 87 0.0 0.0 0.00 0.00 0.00 99 1008.0
20260503053917 -1 179 0.0 0.0 0.00 0.00 0.00 99 1008.0
20260503053417 -1 148 0.0 0.0 0.00 0.00 0.00 99 1008.0
20260503052917 -1 148 0.0 0.0 0.00 0.00 0.00 99 1008.0
20260503052417 -1 155 0.0 0.0 0.00 0.00 0.00 99 1008.0
20260503051917 -1 151 0.0 0.0 0.00 0.00 0.00 99 1008.0
20260503051417 -1 141 0.0 0.0 0.00 0.00 0.00 99 1008.0
20260503050917 0 139 0.0 0.0 0.00 0.00 0.00 99 1008.1
20260503050417 0 151 0.0 0.0 0.00 0.00 0.00 99 1009.0
20260503045916 0 175 0.0 0.0 0.00 0.00 0.00 99 1009.0
20260503045416 0 159 0.0 0.0 0.00 0.00 0.00 99 1009.0
20260503044917 0 172 0.0 0.0 0.00 0.00 0.00 99 1008.2
20260503044416 0 131 0.0 0.0 0.00 0.00 0.00 99 1009.0
20260503043916 0 144 0.0 1.6 0.00 0.00 0.00 99 1009.0
20260503043417 0 132 0.0 1.6 0.00 0.00 0.00 99 1009.0
20260503042916 0 111 0.0 0.0 0.00 0.00 0.00 99 1008.2
20260503042416 0 96 0.0 0.0 0.00 0.00 0.00 99 1009.0
20260503041916 0 118 0.0 0.0 0.00 0.00 0.00 99 1009.0
20260503041416 0 154 0.0 0.0 0.00 0.00 0.00 99 1009.0
20260503040916 0 213 0.0 0.0 0.00 0.00 0.00 99 1009.0
20260503040416 0 186 0.0 0.0 0.00 0.00 0.00 99 1009.0
20260503035916 0 139 0.0 0.0 0.00 0.00 0.00 99 1009.0
20260503035416 0 129 0.0 0.0 0.00 0.00 0.00 99 1009.0
20260503034916 0 124 0.0 0.0 0.00 0.00 0.00 99 1009.0
20260503034416 0 134 0.0 0.0 0.00 0.00 0.00 99 1009.0
20260503033916 0 147 0.0 0.0 0.00 0.00 0.00 99 1009.0
20260503033417 0 130 0.0 0.0 0.00 0.00 0.00 99 1009.0
20260503032917 0 131 0.0 0.0 0.00 0.00 0.00 99 1009.0
20260503032416 0 121 0.0 0.0 0.00 0.00 0.00 99 1009.0
20260503031916 0 169 0.0 0.0 0.00 0.00 0.00 99 1009.0
20260503031416 0 116 0.0 0.0 0.00 0.00 0.00 99 1009.0
20260503030916 0 137 0.0 0.0 0.00 0.00 0.00 99 1009.0
20260503030416 0 140 0.0 0.0 0.00 0.00 0.00 99 1009.0
20260503025916 1 152 0.0 0.0 0.00 0.00 0.00 99 1009.0
20260503025416 1 147 0.0 0.0 0.00 0.00 0.00 99 1009.0
20260503024916 1 167 0.0 0.0 0.00 0.00 0.00 99 1009.0
20260503024416 1 117 0.0 0.0 0.00 0.00 0.00 99 1009.0
20260503023916 1 128 0.0 0.0 0.00 0.00 0.00 99 1009.0
20260503023416 2 107 0.0 0.0 0.00 0.00 0.00 99 1009.0
20260503022916 2 150 0.0 0.0 0.00 0.00 0.00 99 1009.0
20260503022416 2 129 0.0 0.0 0.00 0.00 0.00 99 1009.0
20260503021916 2 129 0.0 0.0 0.00 0.00 0.00 99 1009.0
20260503021416 2 47 0.0 0.0 0.00 0.00 0.00 99 1009.0
20260503020916 2 106 0.0 0.0 0.00 0.00 0.00 99 1009.0
20260503020416 2 94 0.0 0.0 0.00 0.00 0.00 99 1009.0
20260503015916 2 111 0.0 0.0 0.00 0.00 0.00 99 1009.0
20260503015416 2 111 0.0 0.0 0.00 0.00 0.00 99 1009.0
20260503014916 2 136 0.0 0.0 0.00 0.00 0.00 99 1009.0
20260503014416 2 122 0.0 0.0 0.00 0.00 0.00 99 1009.0
20260503013916 2 135 0.0 0.0 0.00 0.00 0.00 99 1009.0
20260503013416 2 136 0.0 0.0 0.00 0.00 0.00 99 1009.0
20260503012916 3 138 0.0 0.0 0.00 0.00 0.00 99 1009.0
20260503012416 3 135 0.0 0.0 0.00 0.00 0.00 99 1009.0
20260503011916 3 135 0.0 0.0 0.00 0.00 0.00 99 1009.0
20260503011416 3 135 0.0 0.0 0.00 0.00 0.00 99 1009.0
20260503010916 3 140 0.0 0.0 0.00 0.00 0.00 99 1009.0
20260503010416 4 151 0.0 0.0 0.00 0.00 0.00 99 1009.0
20260503005916 4 157 0.0 0.0 0.00 0.00 0.00 99 1009.0
20260503005416 5 206 0.0 0.0 0.00 0.00 0.00 99 1009.0
20260503004916 5 130 0.0 0.0 0.00 0.00 0.00 99 1008.1
20260503004416 5 77 0.0 0.0 0.00 0.00 0.00 99 1008.1
20260503003916 5 64 0.0 0.0 0.00 0.00 0.00 99 1008.0
20260503003416 6 64 0.0 0.0 0.00 0.00 0.00 99 1008.0
20260503002916 6 67 0.0 0.0 0.00 0.00 0.00 99 1008.0
20260503002416 6 63 0.0 0.0 0.00 0.00 0.00 99 1008.0
20260503001916 6 71 0.0 0.0 0.00 0.00 0.00 99 1008.0
20260503001416 6 59 0.0 0.0 0.00 0.00 0.00 99 1008.0
20260503000916 7 61 0.0 0.0 0.00 0.00 0.00 99 1008.0
20260503000416 7 82 0.0 0.0 0.00 0.00 0.00 99 1008.0
20260502235916 7 86 0.0 0.0 0.00 0.00 0.00 99 1008.0
20260502235416 7 76 0.0 0.0 0.00 0.00 0.00 99 1008.0
20260502234916 8 51 0.0 0.0 0.00 0.00 0.00 99 1008.0
20260502234416 8 82 0.0 0.0 0.00 0.00 0.00 99 1008.0
20260502233916 8 70 0.0 0.0 0.00 0.00 0.00 99 1008.0
20260502233416 9 45 0.0 0.0 0.00 0.00 0.00 99 1008.0
20260502232916 10 80 0.0 1.6 0.00 0.00 0.00 99 1008.0
20260502232416 10 45 0.0 1.6 0.00 0.00 0.00 99 1008.0
20260502231916 11 52 0.0 0.0 0.00 0.00 0.00 99 1008.0
20260502231416 11 72 0.0 3.2 0.00 0.00 0.00 99 1008.0
20260502230916 12 77 0.0 4.8 0.00 0.00 0.00 99 1008.0
20260502230416 14 94 0.0 4.8 0.00 0.00 0.00 99 1008.0
20260502225916 15 49 0.0 4.8 0.00 0.00 0.00 99 1007.2
20260502225416 15 50 0.0 3.2 0.00 0.00 0.00 99 1008.0
20260502224916 16 37 0.0 8.0 0.00 0.00 0.00 99 1008.0
20260502224416 16 46 1.6 8.0 0.00 0.00 0.00 99 1008.0
20260502223916 16 42 0.0 3.2 0.00 0.00 0.00 99 1007.2
20260502223416 17 88 0.0 0.0 0.00 0.00 0.00 99 1008.0
20260502222916 17 41 0.0 0.0 0.00 0.00 0.00 99 1007.2
20260502222416 16 56 0.0 8.0 0.00 0.00 0.00 99 1008.0
20260502221916 16 45 0.0 8.0 0.00 0.00 0.00 99 1007.2
20260502221416 14 47 0.0 11.3 0.00 0.00 0.00 99 1007.2
20260502220916 12 48 1.6 11.3 0.00 0.00 0.00 99 1007.2
20260502220416 12 76 0.0 1.6 0.00 0.00 0.00 99 1007.2
20260502215916 13 42 0.0 1.6 0.00 0.00 0.00 99 1008.0
20260502215416 14 47 0.0 1.6 0.00 0.00 0.00 99 1008.0
20260502214916 16 46 0.0 4.8 0.00 0.00 0.00 99 1008.0
20260502214416 19 45 0.0 4.8 0.00 0.00 0.00 99 1007.2
20260502213916 20 41 0.0 4.8 0.00 0.00 0.00 99 1007.1
20260502213416 21 76 0.0 3.2 0.00 0.00 0.00 99 1007.1
20260502212916 21 45 0.0 4.8 0.00 0.00 0.00 99 1007.0
20260502212416 21 45 0.0 8.0 0.00 0.00 0.00 99 1007.0
20260502211916 21 140 0.0 8.0 0.00 0.00 0.00 99 1007.0
20260502211416 19 94 0.0 0.0 0.00 0.00 0.00 99 1007.0
20260502210916 17 21 0.0 0.0 0.00 0.00 0.00 99 1007.0
20260502210416 16 74 0.0 0.0 0.00 0.00 0.00 99 1007.0
20260502205916 17 34 0.0 4.8 0.00 0.00 0.00 99 1007.0
20260502205416 18 60 0.0 4.8 0.00 0.00 0.00 99 1007.0
20260502204916 19 46 0.0 4.8 0.00 0.00 0.00 99 1007.0
20260502204416 20 38 0.0 11.3 0.00 0.00 0.00 99 1007.0
20260502203916 20 46 0.0 11.3 0.00 0.00 0.00 99 1007.0
20260502203416 20 42 0.0 3.2 0.00 0.00 0.00 99 1007.0
20260502202916 21 43 0.0 3.2 0.00 0.00 0.00 99 1007.0
20260502202416 22 93 0.0 6.4 0.00 0.00 0.00 99 1007.0
20260502201916 23 40 0.0 6.4 0.00 0.00 0.00 99 1007.0
20260502201416 21 82 0.0 3.2 0.00 0.00 0.00 99 1007.0
20260502200916 20 42 0.0 0.0 0.00 0.00 0.00 99 1007.1
20260502200416 20 87 0.0 0.0 0.00 0.00 0.00 99 1007.1
20260502195916 20 44 0.0 3.2 0.00 0.00 0.00 99 1007.2
20260502195416 20 42 0.0 6.4 0.00 0.00 0.00 99 1007.2
20260502194916 19 42 0.0 6.4 0.00 0.00 0.00 99 1007.2
20260502194416 17 45 0.0 0.0 0.00 0.00 0.00 99 1007.2
20260502193916 17 81 0.0 0.0 0.00 0.00 0.00 99 1008.0
20260502193416 18 75 0.0 6.4 0.00 0.00 0.00 99 1007.2
20260502192916 18 47 0.0 6.4 0.00 0.00 0.00 99 1007.2
20260502192416 18 41 0.0 1.6 0.00 0.00 0.00 99 1007.2